Weather History for KN60 - April, 2012

Change the Weather History Date:

Sunday, April 29, 2012

  Actual Average Record
Temperature  
Mean Temperature 46 °F -  
Max Temperature 52 °F 58 °F 77 °F (1998)
Min Temperature 40 °F 34 °F 21 °F (2005)
Degree Days  
Heating Degree Days 19    
Month to date heating degree days 561  
Moisture  
Dew Point 40 °F    
Average Humidity 82    
Maximum Humidity 100    
Minimum Humidity 63    
Precipitation  
Precipitation 0.04 in - - ()
Month to date precipitation 2.82  
Year to date precipitation 3.92  
Sea Level Pressure  
Sea Level Pressure 29.90 in    
Wind  
Wind Speed 17 mph (SSW)    
Max Wind Speed 26 mph    
Max Gust Speed 33 mph    
Averages and records for this station are not official NWS values.
T = Trace of Precipitation, MM = Missing Value Source: NWS Daily Summary

Daily Weather History Graph

Daily Weather History Graph

Search for Another Location

Airport or City:

Trip Planner

Search our weather history database for the weather conditions in past years. The results will help you decide how hot, cold, wet, or windy it might be!

Date:

Astronomy

Apr. 29, 2012 Rise Set
Actual Time 6:30 AM CDT 8:56 PM CDT
Civil Twilight 5:56 AM CDT 9:30 PM CDT
Nautical Twilight 5:13 AM CDT 10:13 PM CDT
Astronomical Twilight 4:24 AM CDT 11:02 PM CDT
Moon 1:20 PM CDT (4/29) 2:54 AM CDT (4/29)
Length of Visible Light 15h 33m
Length of Day
14h 25m
First Quarter, 53% of the Moon is Illuminated
Apr 29
First Quarter
May 5
Full
May 12
Last Quarter
May 20
New
May 28
First Quarter

Hourly Weather History & Observations

Time (CDT) Temp. Windchill Dew Point Humidity Pressure Visibility Wind Dir Wind Speed Gust Speed Precip Events Conditions
12:52 AM 43.0 °F 34.5 °F 42.1 °F 97% 29.94 in - ESE 19.6 mph 26.5 mph N/A   Unknown
1:52 AM 43.0 °F 33.8 °F 42.1 °F 97% 29.92 in - East 23.0 mph 29.9 mph N/A   Unknown
2:52 AM 43.0 °F 35.1 °F 43.0 °F 100% 29.90 in - ESE 17.3 mph - N/A   Unknown
3:52 AM 43.0 °F 35.4 °F 39.9 °F 89% 29.89 in - SE 16.1 mph - N/A   Unknown
4:52 AM 41.0 °F 33.1 °F 39.0 °F 93% 29.90 in - SE 15.0 mph - N/A   Unknown
5:52 AM 39.9 °F 32.1 °F 39.0 °F 97% 29.89 in - SE 13.8 mph - N/A   Unknown
6:52 AM 39.9 °F 31.8 °F 39.0 °F 97% 29.88 in - SSE 15.0 mph - N/A   Unknown
7:52 AM 41.0 °F 34.3 °F 39.0 °F 93% 29.88 in - South 11.5 mph - N/A   Unknown
8:52 AM 41.0 °F 34.3 °F 39.0 °F 93% 29.90 in - South 11.5 mph 18.4 mph 0.01 in   Unknown
9:52 AM 42.1 °F 34.2 °F 39.9 °F 92% 29.90 in - SSW 16.1 mph - 0.02 in   Unknown
10:52 AM 45.0 °F 38.2 °F 41.0 °F 86% 29.89 in - SSW 15.0 mph 24.2 mph N/A   Unknown
11:52 AM 46.0 °F 38.0 °F 39.9 °F 79% 29.90 in - SSW 21.9 mph 27.6 mph N/A   Unknown
12:52 PM 44.1 °F 36.2 °F 39.9 °F 85% 29.90 in - SW 18.4 mph 26.5 mph N/A   Unknown
1:52 PM 50.0 °F - 41.0 °F 71% 29.88 in - SW 19.6 mph 26.5 mph 0.01 in   Unknown
2:52 PM 50.0 °F - 39.9 °F 68% 29.89 in - WSW 24.2 mph 32.2 mph N/A   Unknown
3:52 PM 48.9 °F - 39.9 °F 71% 29.90 in - SW 20.7 mph 27.6 mph N/A   Unknown
4:52 PM 50.0 °F - 39.9 °F 68% 29.89 in - WSW 18.4 mph 26.5 mph N/A   Unknown
5:52 PM 50.0 °F - 39.0 °F 66% 29.90 in - WSW 19.6 mph 24.2 mph N/A   Unknown
6:52 PM 52.0 °F - 39.9 °F 63% 29.90 in - West 15.0 mph - N/A   Unknown
7:52 PM 48.9 °F - 39.0 °F 69% 29.91 in - West 8.1 mph - N/A   Unknown
8:52 PM 46.9 °F - 39.0 °F 74% 29.93 in - West 5.8 mph - N/A   Unknown
9:52 PM 45.0 °F 43.5 °F 39.9 °F 82% 29.93 in - WSW 3.5 mph - N/A   Unknown
10:52 PM 41.0 °F 38.0 °F 39.0 °F 93% 29.93 in - SW 4.6 mph - N/A   Unknown
11:52 PM 39.0 °F - 37.0 °F 93% 29.92 in - Calm Calm - N/A   Unknown